Powrót do katalogu

INTELSAT 1002

AktywnyŁącznośćGEO
NORAD 28358·PAYLOAD· XX

Wystrzelony Jun 16, 2004 z Baikonur Cosmodrome

Loading…

TLE

ŚwieżeSource: CelesTrak SupGP

Epoka: Sep 14, 2026, 00:00 UTC

1 28358C 04022A   26257.00000000  .00000076  00000+0  00000+0 0  2574
2 28358   0.0448 263.7449 0000059 173.6755 274.5665  1.00272176    19

Śledź INTELSAT 1002 w czasie rzeczywistym z AllMySat

Download on the App Store